Regional Weather Roundup
Issued by NWS Newport/Morehead, NC

Current Version | Previous Version | Graphics & Text | Print | Product List | Glossary Off
Versions: 1 2 3 4 5 6 7 8 9 10 11 12 13 14 15 16 17 18 19 20 21 22 23 24 25 26 27 28 29 30 31 32 33 34 35 36 37 38 39 40 41 42 43 44 45 46 47 48 49 50

000
ASUS42 KMHX 222325
RWRMHX
WEATHER ROUNDUP FOR EASTERN NORTH CAROLINA
NATIONAL WEATHER SERVICE NEWPORT/MOREHEAD CITY NC
700 PM EDT FRI SEP 22 2017

NOTE: "FAIR" INDICATES FEW OR NO CLOUDS BELOW 12,000 FEET
WITH NO SIGNIFICANT WEATHER AND/OR OBSTRUCTIONS TO VISIBILITY

NCZ015>017-031-032-045>047-102-103-230000-
NORTH COAST

CITY           SKY/WX    TMP DP  RH WIND       PRES   REMARKS
EDENTON        CLOUDY    78  72  79 CALM      30.00R
ELIZABETH CITY CLEAR     77  71  82 SE6       29.99R
KITTY HAWK     PTCLDY    72  68  87 CALM      29.99R
MANTEO         MOCLDY    74  66  75 CALM      30.00S

$$

NCZ045>047-081-094-103-104-230000-
CENTRAL COAST

CITY           SKY/WX    TMP DP  RH WIND       PRES   REMARKS
FRISCO         CLEAR     78  72  81 SW3       29.99S

$$

NCZ095-097-098-100-101-230000-
SOUTHERN COAST

CITY           SKY/WX    TMP DP  RH WIND       PRES   REMARKS
BEAUFORT       CLEAR     77  70  79 S6        30.00R
CEDAR ISLAND   NOT AVBL
JACKSONVILLE   CLEAR     78  71  79 SW3       29.99R
PINEY ISLAND     N/A    N/A N/A N/A S5        29.99S
WILMINGTON     PTCLDY    79  70  74 S3        30.00R


$$

NCZ011>013-027>030-043-044-078>080-089-090>093-098-230000-
COASTAL PLAIN

CITY           SKY/WX    TMP DP  RH WIND       PRES   REMARKS
AHOSKIE        PTCLDY    72  70  92 CALM      30.00S
CLINTON        CLEAR     79  67  65 CALM      30.00R
ELIZABETHTOWN  NOT AVBL
GOLDSBORO      CLEAR     81  71  71 CALM      29.98R
GREENVILLE     CLEAR     79  70  73 CALM      30.01R
HAVELOCK       CLEAR     78  71  79 S6        30.00R
KENANSVILLE    CLEAR     75  68  78 CALM      30.00R
KINSTON        CLEAR     77  70  78 CALM      30.00R
NEW BERN       CLEAR     78  70  76 S6        30.00R
RICHLANDS      CLEAR     78  71  79 S5        30.00R
ROCKY MOUNT    PTCLDY    79  70  74 CALM      29.99R
WASHINGTON     CLOUDY    80  67  64 CALM      29.99R
WHITEVILLE     MOCLDY    80  71  73 CALM      29.99S

$$

AMZ130-135-150-152-154-156-158-170-250-252-270-ANZ085-086-088-633-658-670-230000-
MARINE OBSERVATIONS

STATION/POSITION TIME  TEMP    WIND        PRES    WAVE   SWELL
                       AIR SEA DIR/SP/G            HT/PER HT/PER
                 (UTC) (F)     (DEG/KT/KT) (MB)    (FT/S) (FT/S)
CHESAPEAKE LIGHT NOT AVBL
64 E VA BEACH    2250   71 71  360/  6/  8 1015.4    9/11   8/11
DUCK             2300   76 77  140/  4/  4 1015.3
2 E DUCK         2230      76                N/A     5/11   3/11
OREGON INLET     2300          120/  2/  2 1015.7
13E OREGON INLT  2218      76                N/A     7/11   7/11
HATTERAS CG      2300   78 79  210/  2/  4 1015.5
DIAMOND BUOY     2250   78 79  240/  4/  6 1015.3    6/11   7/11
CAPE LOOKOUT     2300   79     170/  5/  6 1015.5
BEAUFORT LAB     2300   79 78  180/  6/  6 1015.2
30 SE NEW RVR IN 2308   80     190/  4/  6 1015.4
30 SE NEW RVR IN NOT AVBL
27 SE WRIGHTSVLE 2308   80 81  110/  4/  6 1015.5
5 SE WRIGHTSVLE  2308   79 79  180/  6/  8 1015.3
225 S CAPE HAT   2250   79 80   60/ 10/ 12 1014.6    9/14  10/14
41 SE CHARLESTON 2310   80 82   60/  6/  8 1014.5

$$




USA.gov is the U.S. government's official web portal to all federal, state and local government web resources and services.